Weather in Signagi

Georgia     41°37′08″N   45°55′21″E
temp.,
°C
wind,
m/s
gust,
m/s
humid.,
%
clouds,
%
prec.,
mm/h
press.,
hPa
HPBL,
m
15 may, sat
sat1501:00+18ne11641 0.0 101612
04:00+16nnw11710 0.0 101611
07:00+18wnw11690 0.0 101737
10:00+23ese22440 0.0 1016772
13:00+27se33330 0.0 10151736
16:00+27se44320 0.0 10131786
19:00+24se22442 0.0 101325
22:00+20ne114275 0.0 101511
16 may, sun
sun1601:00+18e2256100 0.0 101514
04:00+16nne11578 0.0 101511
07:00+18nne01604 0.0 101522
10:00+23ese34330 0.0 1015925
13:00+26ese45230 0.0 10131829
16:00+26se45230 0.0 10121911
19:00+24se11376 0.0 101111
22:00+19nne113741 0.0 101211
17 may, mon
mon1701:00+17e1139100 0.0 101311
04:00+16nw01445 0.0 101211
07:00+18nnw11496 0.0 101217
10:00+23nne11347 0.0 1011645
13:00+27ese12300 0.0 10101284
16:00+28e333155 0.0 10071218
19:00+23ssw5946100 0.0 1009241
22:00+20nnw115397 0.0 101018
18 may, tue
tue1801:00+18sw225867 0.0 100816
04:00+16n11623 0.0 100811
07:00+18nw1164100 0.0 100951
10:00+22nne215765 1.0 1009568
13:00+26nne02431 0.0 10081537
16:00+27wnw123876 0.0 10072221
19:00+20w366189 2.0 1009210
22:00+15e018428 3.8 101312
19 may, wed
wed1901:00+14nw22833 0.9 101326
04:00+15w22751 0.9 101313
07:00+16wsw22740 0.0 101473
10:00+22w34450 0.0 1014886
13:00+25n33370 0.0 10131474
16:00+27ne22300 0.0 10121652
19:00+24ne33480 0.0 101263
22:00+19se22511 0.0 101411